This demonstration page uses our WeatherBlox Daily Observations layout. Learn more.

Left ArrowRight Arrow

Hourly Observations for January 31, 2017

Temp ( °F °C ) Dew Point ( °F °C ) Humidity (%) Winds ( mph kmh ) Pressure ( in mb ) Visibility ( mi km ) Precip ( " mm )
12:15 am 00:15 Clear 32 undefined 21 -6 64 64 S 10 17 29.68 1005 10 16 N/A
12:36 am 00:36 Clear 32 undefined 23 -5 69 69 SSW 9 15 29.65 1004 10 16 N/A
12:56 am 00:56 Clear 32 undefined 25 -4 75 75 SSW 9 15 29.65 1004 10 16 N/A
1:15 am 01:15 Clear 32 undefined 27 -3 80 80 SSW 8 13 29.65 1004 10 16 N/A
1:36 am 01:36 Clear 36 2 30 -1 81 81 WSW 15 24 29.65 1004 10 16 N/A
1:56 am 01:56 Clear 39 4 30 -1 70 70 WSW 17 28 29.65 1004 10 16 N/A
2:15 am 02:15 Clear 39 4 30 -1 70 70 WSW 18 30 29.65 1004 10 16 N/A
2:36 am 02:36 Clear 37 3 30 -1 75 75 WSW 16 26 29.65 1004 10 16 N/A
2:56 am 02:56 Clear 37 3 30 -1 75 75 WSW 15 24 29.65 1004 10 16 N/A
3:15 am 03:15 Clear 37 3 30 -1 75 75 W 18 30 29.65 1004 10 16 N/A
3:36 am 03:36 Partly Cloudy 39 4 30 -1 70 70 W 21 33 29.68 1005 10 16 N/A
3:56 am 03:56 Partly Cloudy 39 4 30 -1 70 70 W 22 35 29.68 1005 10 16 N/A
4:15 am 04:15 Mostly Cloudy 39 4 30 -1 70 70 W 16 26 29.68 1005 10 16 N/A
4:36 am 04:36 Cloudy 39 4 32 undefined 75 75 W 20 31 29.68 1005 10 16 N/A
4:56 am 04:56 Cloudy 39 4 32 undefined 75 75 W 20 31 29.68 1005 10 16 N/A
5:16 am 05:16 Cloudy 39 4 32 undefined 75 75 W 22 35 29.68 1005 10 16 N/A
5:35 am 05:35 Cloudy 39 4 30 -1 70 70 W 30 48 29.68 1005 10 16 N/A
5:56 am 05:56 Cloudy 39 4 30 -1 70 70 W 21 33 29.71 1006 10 16 N/A
6:16 am 06:16 Cloudy 39 4 30 -1 70 70 W 20 31 29.71 1006 10 16 N/A
6:35 am 06:35 Cloudy 39 4 30 -1 70 70 W 29 46 29.71 1006 10 16 N/A
6:56 am 06:56 Mostly Cloudy 37 3 30 -1 75 75 W 21 33 29.71 1006 10 16 N/A
7:16 am 07:16 Partly Cloudy 37 3 30 -1 75 75 W 20 31 29.74 1007 10 16 N/A
7:35 am 07:35 Partly Cloudy 37 3 30 -1 75 75 W 26 43 29.74 1007 10 16 N/A
7:56 am 07:56 Mostly Cloudy 37 3 30 -1 75 75 W 23 37 29.74 1007 10 16 N/A
8:16 am 08:16 Cloudy 37 3 30 -1 75 75 W 21 33 29.77 1008 10 16 N/A
8:36 am 08:36 Cloudy 37 3 30 -1 75 75 W 21 33 29.77 1008 10 16 N/A
8:56 am 08:56 Cloudy 37 3 30 -1 75 75 W 22 35 29.77 1008 10 16 N/A
9:15 am 09:15 Cloudy 37 3 30 -1 75 75 W 15 24 29.80 1009 10 16 N/A
9:36 am 09:36 Cloudy 37 3 30 -1 75 75 W 17 28 29.80 1009 10 16 N/A
9:56 am 09:56 Cloudy 39 4 30 -1 70 70 W 18 30 29.80 1009 10 16 N/A
10:15 am 10:15 Cloudy 39 4 30 -1 70 70 W 23 37 29.83 1010 10 16 N/A
10:36 am 10:36 Cloudy 39 4 30 -1 70 70 W 15 24 29.83 1010 10 16 N/A
10:56 am 10:56 Cloudy 39 4 30 -1 70 70 W 18 30 29.83 1010 10 16 N/A
11:16 am 11:16 Cloudy 39 4 30 -1 70 70 W 15 24 29.85 1011 10 16 N/A
11:36 am 11:36 Cloudy 39 4 30 -1 70 70 W 16 26 29.85 1011 10 16 N/A
11:56 am 11:56 Cloudy 39 4 30 -1 70 70 W 16 26 29.85 1011 10 16 N/A
12:16 pm 12:16 Cloudy 39 4 30 -1 70 70 W 17 28 29.85 1011 10 16 N/A
12:36 pm 12:36 Cloudy 39 4 30 -1 70 70 W 17 28 29.85 1011 10 16 N/A
12:55 pm 12:55 Cloudy 39 4 30 -1 70 70 W 20 31 29.85 1011 10 16 N/A
1:16 pm 13:16 Cloudy 41 5 30 -1 66 66 W 22 35 29.85 1011 10 16 N/A
1:36 pm 13:36 Cloudy 41 5 30 -1 66 66 W 25 41 29.85 1011 10 16 N/A
1:56 pm 13:56 Cloudy 41 5 30 -1 66 66 W 18 30 29.85 1011 10 16 N/A
2:16 pm 14:16 Cloudy 41 5 30 -1 66 66 W 24 39 29.85 1011 10 16 N/A
2:36 pm 14:36 Cloudy 41 5 30 -1 66 66 W 25 41 29.85 1011 10 16 N/A
2:56 pm 14:56 Mostly Cloudy 41 5 28 -2 61 61 W 26 43 29.85 1011 10 16 N/A
3:16 pm 15:16 Mostly Cloudy 41 5 30 -1 66 66 W 23 37 29.85 1011 10 16 N/A
3:35 pm 15:35 Mostly Cloudy 41 5 28 -2 61 61 W 22 35 29.88 1012 10 16 N/A
3:56 pm 15:56 Mostly Cloudy 41 5 30 -1 66 66 W 17 28 29.91 1013 10 16 N/A
4:16 pm 16:16 Cloudy 41 5 30 -1 66 66 W 22 35 29.91 1013 10 16 N/A
4:35 pm 16:35 Cloudy 41 5 30 -1 66 66 W 15 24 29.91 1013 10 16 N/A
4:56 pm 16:56 Cloudy 41 5 30 -1 66 66 W 17 28 29.94 1014 10 16 N/A
5:16 pm 17:16 Cloudy 39 4 30 -1 70 70 W 18 30 29.94 1014 10 16 N/A
5:35 pm 17:35 Partly Cloudy 39 4 30 -1 70 70 W 17 28 29.94 1014 10 16 N/A
5:56 pm 17:56 Partly Cloudy 39 4 30 -1 70 70 W 14 22 29.94 1014 10 16 N/A
6:16 pm 18:16 Mostly Cloudy 39 4 30 -1 70 70 W 14 22 29.94 1014 10 16 N/A
6:35 pm 18:35 Mostly Cloudy 39 4 30 -1 70 70 W 12 19 29.97 1015 10 16 N/A
6:56 pm 18:56 Partly Cloudy 39 4 30 -1 70 70 W 9 15 29.97 1015 10 16 N/A
7:16 pm 19:16 Mostly Cloudy 37 3 30 -1 75 75 W 9 15 29.97 1015 10 16 N/A
7:35 pm 19:35 Partly Cloudy 37 3 30 -1 75 75 W 9 15 29.97 1015 10 16 N/A
7:56 pm 19:56 Clear 36 2 30 -1 81 81 WSW 8 13 30.03 1017 10 16 N/A
8:16 pm 20:16 Partly Cloudy 37 3 30 -1 75 75 W 9 15 30.00 1016 10 16 N/A
8:35 pm 20:35 Partly Cloudy 37 3 30 -1 75 75 WSW 9 15 29.97 1015 10 16 N/A
8:56 pm 20:56 Clear 36 2 30 -1 81 81 WSW 8 13 30.00 1016 10 16 N/A
9:16 pm 21:16 Clear 37 3 30 -1 75 75 WSW 7 11 29.97 1015 10 16 N/A
9:36 pm 21:36 Clear 36 2 30 -1 81 81 WSW 5 7 30.00 1016 10 16 N/A
9:56 pm 21:56 Clear 34 1 30 -1 87 87 WSW 5 7 30.00 1016 10 16 N/A
10:16 pm 22:16 Clear 36 2 30 -1 81 81 SSW 5 7 30.00 1016 10 16 N/A
10:36 pm 22:36 Partly Cloudy 36 2 30 -1 81 81 SW 3 6 30.03 1017 10 16 N/A
10:56 pm 22:56 Partly Cloudy 36 2 30 -1 81 81 WSW 5 7 30.03 1017 10 16 N/A
11:16 pm 23:16 Mostly Cloudy 36 2 30 -1 81 81 W 7 11 30.03 1017 10 16 N/A
11:36 pm 23:36 Cloudy 36 2 30 -1 81 81 WSW 6 9 30.03 1017 10 16 N/A
11:56 pm 23:56 Cloudy 36 2 32 undefined 87 87 W 8 13 30.06 1018 10 16 N/A

Powered by AerisWeather